STARLINK-34913, 65369

Orbit data source: Space-Track

STARLINK-34913, 65369 is a payload satellite owned by SpaceX/Seattle (US) in LEO that was launched on Thu, 28 Aug 2025 UTC via an FALCON 9 launch vehicle from the Air Force Eastern Test Range (AFETR). Payload-class satellites include a variety of spacecraft equipped with specific instruments for various scientific and technological missions. These include communications satellites like Starlink; space stations such as the ISS; scientific satellites like the Hubble; Earth observation satellites from companies like Planet Labs, Umbra, and HawkEye 360; GPS; miniature CubeSats for education and research; and military/defense satellites.

Loading next visibility...
Identifier
65369, 2025-190U
Orbit
LEO
Country
Flag of USUS
Related business
Manufacturer
SpaceX/Seattle
Mission
Operational Commercial Communications
Bus & Motor
STARLINK V2MO, Unknown motor
Mass
575 kg wet, ~530 kg dry
Launch date (UTC)
2025-08-28 (7 months ago)
Launch vehicle
FALCON 9
Launch site
Air Force Eastern Test Range (AFETR)
Object type
Payload
Rocket body
Debris
Shape & HBR
Box + 2 Pan, 17.7 m
Radar Cross Section
36.964 m², Large (>1 m²)

Expand to show TLE details & history
Last TLE update: 1 day ago

TLE from 1 day ago
0 STARLINK-34913
1 65369U 25190U   26093.11138350  .00006178  00000-0  22066-3 0  9999
2 65369  53.1593  54.7804 0001095  91.2374 268.8752 15.30181688 33494
Epoch: 2026-04-03T02:40Z
TLE epoch observation values (Epoch: 2026-04-03T02:40:23.534Z)
Latitude
-0.00003°
Longitude
-176.76788°
Altitude
476.184 km
Speed
7.629 km/s
True Right ascension
03h 39m 07s
True Declination
0° 00' 00"
Sunlit
Object was in daylight at epoch
Visualization orbit readout
Latitude
Unknown
Longitude
Unknown
Altitude
Unknown
Speed
Unknown
Apparent Right ascension
Unknown
Apparent Declination
Unknown
Sunlit
N/A
Visualization observer readout
Local Sidereal Time
17:43:05
Azimuth
Unknown
Elevation
Unknown
Doppler factor
Unknown
Orbital elements
Apogee altitude
476.277 km
Perigee altitude
474.776 km
Semi-major axis
6,853.663 km
Eccentricity
0.00011
Inclination
53.1593°
RAAN
54.7804°
Arg. of periapsis
91.2374°
True anomaly
268.86265°
Mean anomaly
268.8752°
Eccentric anomaly
268.86893°
Mean motion
3.82524 °/min
Orbital period
94.11 mins
BSTAR
0.00022066
Loading maneuver chart data...
Computing Atmospheric mass density...
Loading historical data...
Loading historical data...
Loading historical data...
Loading historical data...
Loading historical data...
Loading historical data...
Loading historical data...

Documentation

Showing up to 5 results
|